Current weather by "City, St" or "zip code"  
 
Advertise Here

Current Conditions: Newport, Newport State Airport, RI

A Few Clouds and Breezy


78.0 F

Last Updated on Aug 4 2020, 5:53 pm EDT
Humidity: 76%
Wind Speed: S 25.3 G 46.0 mph
Barometer 29.80 in
Dewpoint: 70.0 F
Visibility: 7.00 mi
Precip: Trace
Heat Index: NA
Wind Chill: NA
Current conditions at:

Newport, Newport State Airport, RI (KUUU)

Lat: 41.53 Lon: 71.28361

Local Radar Image active severe weather and emergency alerts image image weather storm and storm spotter reports image weather observation monitoring service image
Local
Radar
Active
Alerts
Storm Reports Obs
Monitoring

Sign-up For Email & Text Message Weather Alert Notification Services


Advertise Here

Observation History for Newport, Newport State Airport, RI


Time Wind
(mph)
Vis
(mi)
Weather Precip (in) Temperature (F) Relative
Humidity
Wind
Chill
(F)
Heat
Index
(F)
Pressure
Air Dwpt altimeter
(in)
sea level
(mb)
Rmks
5:53 pm EDT S 25.3 G 46.0 7.00 A Few Clouds and Breezy Trace 78.0 70.0 76% NA NA 29.80 1008.8
4:53 pm EDT S 24.2 G 44.9 1.00 Light Rain Fog/Mist and Breezy 00.11 77.0 73.9 90% NA NA 29.81 1009.0
3:53 pm EDT SE 20.7 G 31.1 4.00 Overcast with Haze and Breezy -- 79.0 73.9 85% NA NA 29.81 1009.3
2:53 pm EDT SE 13.8 G 24.2 5.00 Overcast with Haze -- 79.0 73.9 85% NA NA 29.87 1011.1
1:53 pm EDT SE 15.0 G 23.0 7.00 Mostly Cloudy -- 79.0 75.0 88% NA NA 29.95 1013.8
12:53 pm EDT SE 12.7 G 23.0 7.00 Overcast -- 80.0 75.0 85% NA 85 29.98 1014.8
11:53 am EDT SE 11.5 8.00 Overcast -- 80.0 75.9 87% NA 85 30.00 1015.7
10:53 am EDT SE 12.7 G 19.6 7.00 Overcast -- 81.0 75.9 85% NA 87 30.03 1016.6
9:53 am EDT S 12.7 G 19.6 9.00 Mostly Cloudy -- 81.0 75.9 85% NA 87 30.04 1016.8
8:53 am EDT SE 9.2 6.00 Fog/Mist -- 79.0 75.9 90% NA NA 30.04 1016.8
7:53 am EDT E 3.5 7.00 Mostly Cloudy -- 77.0 73.9 90% NA NA 30.04 1017.1
6:53 am EDT SE 3.5 9.00 Fair -- 75.0 71.1 88% NA NA 30.06 1017.6
5:53 am EDT E 3.5 9.00 Fair -- 74.0 70.0 88% NA NA 30.06 1017.6
4:53 am EDT N 0.0 10.00 Fair -- 75.0 70.0 84% NA NA 30.06 1017.5
3:53 am EDT SW 4.6 9.00 Fair -- 75.0 71.1 88% NA NA 30.07 1018.0
2:53 am EDT S 4.6 4.00 Fog/Mist -- 75.0 73.0 94% NA NA 30.07 1018.1
1:53 am EDT E 4.6 7.00 Fair -- 75.0 72.0 90% NA NA 30.06 1017.5
12:53 am EDT N 0.0 9.00 Fair -- 77.0 73.0 88% NA NA 30.07 1018.1
11:53 pm EDT N 0.0 9.00 Fair -- 77.0 73.0 88% NA NA 30.07 1018.1
10:53 pm EDT SW 4.6 10.00 Fair -- 76.0 72.0 88% NA NA 30.09 1018.6
9:53 pm EDT 4.6 10.00 Fair -- 77.0 70.0 79% NA NA 30.07 1018.1
8:53 pm EDT 5.8 10.00 Fair -- 77.0 70.0 79% NA NA 30.05 1017.5
7:53 pm EDT SW 8.1 10.00 Fair -- 78.0 69.1 74% NA NA 30.04 1016.8
6:53 pm EDT 6.9 G 17.3 10.00 Fair -- 79.0 68.0 69% NA NA 30.02 1016.3

Regional Weather Observation


Providence, Theodore Francis Green State Airport, RI (KPVD)

Partly Cloudy and Windy
79.0 F

N. Kingston / Quonset, RI (KOQU)

A Few Clouds and Windy
79.0 F

Taunton, Taunton Municipal Airport, MA (KTAN)

Mostly Cloudy
78.0 F

Newport, Newport State Airport, RI (KUUU)

A Few Clouds and Breezy
78.0 F

Westerly, Westerly State Airport, RI (KWST)

Overcast and Breezy
77.0 F

Block Island State Airport, RI (KBID)

Fair and Breezy
76.0 F